Wetbulb
57.60 57.79 57.57 57.61 57.82 58.21 58.53 58.71 59.06 59.51 59.85 60.07 60.12 60.12 59.99 59.94 59.37 58.66 51.78 58.52 59.67 64.12 65.07 55.90 55.98 55.57 55.33 54.13 50.61 48.74 49.50 46.83 47.16 48.55 50.81 51.14 52.49 55.55 55.29 58.52 55.10 57.81 59.22 63.55 71.30
57.08 57.35 57.26 57.55 57.77 58.03 58.04 58.40 58.96 59.13 59.42 59.84 59.90 59.86 59.79 59.83 54.62 53.17 60.97 64.37 64.67 65.60 55.92 55.35 54.25 54.12 53.14 52.08 50.79 50.20 49.89 47.45 49.44 50.04 50.53 50.90 51.46 51.44 53.82 54.03 54.46 57.39 65.78 68.49 71.23
56.47 56.76 57.08 57.25 57.50 57.88 57.91 58.22 58.50 59.14 59.36 59.40 59.61 59.73 59.79 59.71 53.58 51.76 65.71 66.81 65.94 65.03 57.57 56.72 54.48 53.00 50.94 50.73 49.57 48.44 48.94 49.14 49.91 50.58 50.66 50.05 50.37 51.35 53.16 52.83 55.21 56.69 61.91 68.39 69.66
56.04 56.52 56.78 56.92 57.16 57.60 57.72 57.98 58.60 59.33 59.18 59.00 59.28 59.82 59.89 54.98 46.81 53.69 67.84 66.53 67.99 61.39 56.30 54.97 54.29 52.25 50.69 49.37 49.43 49.21 49.40 50.58 50.80 51.28 50.01 49.95 51.05 50.40 51.32 52.11 55.16 58.08 65.59 68.54 69.47
55.90 56.02 56.33 56.59 56.89 57.17 57.48 57.60 57.93 58.12 58.17 58.46 59.86 60.18 58.49 51.99 51.67 56.04 66.18 64.23 60.86 55.87 54.33 53.71 53.53 52.24 50.42 50.05 50.46 50.03 49.28 49.85 49.87 50.08 50.10 51.22 49.97 49.89 50.45 51.99 56.06 63.43 66.71 67.67 69.23
55.91 55.84 55.93 56.25 56.66 56.81 56.75 56.68 56.57 56.87 57.46 58.74 60.27 59.99 55.71 49.20 56.18 58.97 57.26 55.96 55.71 55.75 54.62 55.20 53.62 53.42 51.87 50.63 50.89 49.93 50.14 49.78 50.35 50.07 50.19 50.32 49.80 51.05 51.99 53.04 54.11 60.68 64.07 66.57 67.97
55.77 55.69 55.79 56.06 56.37 56.62 56.48 56.23 56.06 56.65 57.95 59.64 60.92 56.93 55.08 53.41 59.08 58.92 57.36 56.41 55.66 55.51 54.46 54.43 54.83 53.76 52.73 50.78 51.21 50.26 48.85 50.89 50.23 49.63 49.39 50.89 47.77 48.75 52.93 53.82 53.72 54.42 54.31 53.77 60.91
55.81 55.61 55.57 56.00 56.36 56.66 56.93 56.56 56.31 57.57 59.21 60.32 60.70 57.05 54.33 58.64 59.38 57.19 57.86 56.95 57.14 56.71 55.48 55.25 55.48 54.10 52.87 52.27 50.29 48.91 48.21 46.62 49.57 49.99 49.99 49.57 44.83 50.03 53.02 53.56 53.43 54.36 55.29 56.03 54.26
55.63 55.40 55.65 55.80 56.33 56.56 56.21 55.85 57.01 58.64 60.14 60.15 56.87 53.33 52.52 60.03 55.38 56.91 57.16 55.54 56.04 56.55 56.28 54.94 55.15 51.66 51.40 49.78 48.14 47.57 44.55 45.37 46.28 49.96 49.13 49.61 45.42 50.13 52.70 53.33 53.08 54.52 55.67 56.71 57.36
55.67 55.08 55.18 55.65 55.77 55.73 55.02 55.38 57.11 58.17 59.10 55.86 54.00 53.87 55.71 53.99 56.40 55.47 57.26 56.44 54.95 54.99 54.89 55.00 53.54 51.72 50.13 49.49 43.19 43.98 44.22 44.75 45.23 48.04 48.41 47.77 46.84 50.01 51.82 52.61 52.55 53.76 55.27 56.41 56.92
55.23 55.06 54.90 55.28 55.90 55.28 55.25 56.95 55.65 54.86 56.63 51.57 51.20 52.42 53.27 56.75 56.51 55.30 56.06 56.08 55.60 54.12 49.94 51.18 49.90 46.86 47.64 47.13 46.92 46.16 45.60 44.71 45.90 47.69 46.73 46.68 46.79 48.34 50.95 51.78 52.01 52.94 54.29 55.57 56.23
54.60 54.86 55.20 55.26 55.29 54.80 54.96 55.49 54.12 55.70 51.94 53.31 53.14 53.22 54.30 55.70 52.04 54.37 56.94 53.75 52.77 48.81 49.34 49.52 46.55 48.31 48.58 47.89 47.26 46.45 44.75 44.23 45.86 47.46 46.86 45.94 45.36 48.13 49.79 49.99 51.05 51.75 53.15 54.59 56.18
54.24 54.51 54.92 55.02 54.78 56.65 56.54 56.23 57.04 56.62 51.68 52.11 53.89 53.58 55.09 55.11 51.27 52.84 55.14 52.70 50.91 48.66 48.86 47.01 47.04 49.08 48.80 47.08 46.18 45.32 44.46 44.04 43.98 45.76 46.03 45.97 43.52 45.25 48.34 50.39 51.50 52.04 53.53 54.40 54.57
53.79 54.06 54.22 54.04 56.22 55.85 56.68 57.39 55.87 56.86 50.19 50.88 52.92 54.38 52.95 53.24 51.14 55.60 55.36 53.64 51.28 48.20 48.40 47.72 48.38 47.56 47.38 45.60 45.78 43.26 45.84 45.21 44.57 43.64 41.15 43.85 38.98 42.76 45.89 47.47 49.62 50.95 52.04 52.35 53.51
53.39 53.75 53.73 53.72 57.36 56.78 57.59 57.62 56.44 58.77 40.84 51.92 50.37 55.45 52.23 51.21 52.44 53.44 56.03 54.56 49.48 48.76 49.45 45.18 46.02 46.24 45.51 45.13 46.46 44.34 45.65 44.03 43.58 43.28 41.76 41.39 39.93 41.58 45.47 44.40 46.79 49.81 51.57 52.74 53.02
53.12 53.41 53.01 55.18 56.39 57.61 57.43 57.02 59.33 49.38 39.33 47.46 49.95 49.11 49.14 50.08 51.68 53.20 53.62 55.43 52.91 49.41 49.50 47.17 49.80 47.94 46.76 47.04 45.98 45.61 44.45 42.76 41.94 41.96 37.25 40.00 40.18 39.90 43.05 44.77 46.87 49.40 51.04 52.17 52.91
52.67 52.71 53.54 55.65 56.03 56.56 57.02 57.27 48.72 43.49 49.66 46.75 47.71 48.89 49.27 48.74 49.08 50.64 49.07 48.81 47.92 45.27 44.83 46.23 46.20 48.04 47.96 44.08 46.74 46.35 42.72 37.33 35.49 36.07 34.43 40.24 38.93 40.66 44.58 46.62 47.69 48.51 48.78 49.98 51.54
51.57 51.54 52.51 55.74 57.79 57.23 58.29 53.14 43.36 45.89 46.15 50.28 48.96 48.90 47.27 48.44 48.36 48.54 47.20 46.32 48.25 47.27 44.97 43.18 40.52 45.06 47.05 44.82 42.68 42.18 42.26 37.78 29.33 32.13 34.82 40.41 35.98 41.32 45.69 46.82 47.71 49.08 49.21 49.46 50.12
50.55 57.41 59.22 58.06 58.85 59.23 56.08 47.48 46.07 46.89 48.59 47.99 48.11 46.22 46.07 47.57 47.86 47.51 46.56 45.85 46.54 47.38 44.71 42.95 40.90 45.94 46.33 46.62 45.32 42.00 40.16 41.78 37.21 36.29 34.57 38.81 39.84 43.87 45.77 45.75 47.06 47.52 48.16 48.80 49.23
58.66 59.09 57.02 56.62 58.60 59.66 54.00 44.68 47.15 49.71 49.65 49.03 45.33 46.31 43.87 45.35 45.65 46.24 45.50 47.68 45.91 47.44 48.57 44.37 39.96 43.64 45.34 46.02 46.76 44.68 44.22 38.30 39.59 30.92 28.64 34.90 36.13 38.04 42.38 43.82 44.98 45.70 46.70 47.73 49.04
57.79 56.34 57.98 56.26 59.76 56.76 49.20 47.40 48.69 50.11 50.85 48.25 46.13 45.13 45.06 44.47 44.93 44.70 44.80 47.33 48.34 46.56 48.24 45.29 42.99 40.61 43.00 42.11 40.90 42.49 40.96 39.84 39.35 38.31 31.91 29.70 35.30 44.72 43.92 44.94 45.25 46.66 47.45 48.16 48.37
53.81 52.34 57.46 57.15 52.81 48.91 50.30 49.98 46.98 48.84 50.55 49.63 49.30 47.23 45.68 44.75 44.01 44.32 44.10 45.90 48.79 48.35 44.33 44.68 42.83 39.16 39.03 43.33 44.15 43.90 41.87 40.78 37.47 32.91 36.90 35.16 34.51 45.83 46.28 46.34 46.26 46.33 47.42 47.55 48.21
52.23 52.09 57.56 57.08 48.50 48.05 48.66 47.70 48.75 48.17 47.55 47.77 46.78 47.81 47.50 45.15 42.65 44.43 45.01 47.95 49.74 47.52 46.16 46.03 41.33 37.02 37.07 42.01 43.90 42.26 43.24 42.48 40.43 38.91 35.61 32.72 35.46 45.15 45.79 45.58 46.55 46.20 45.98 46.78 47.58
52.17 50.53 52.68 51.27 48.84 48.25 47.28 46.89 46.10 48.88 47.45 47.57 47.18 48.42 46.67 44.51 45.05 43.72 44.47 46.47 49.51 48.54 47.14 48.30 41.16 39.55 34.88 38.08 41.11 39.02 41.32 42.70 41.49 37.19 37.23 37.06 38.70 42.83 44.59 44.49 45.84 45.56 46.31 46.63 46.72
48.45 46.85 46.59 47.14 48.12 48.29 47.83 47.19 45.82 45.41 47.53 47.68 45.87 46.74 46.41 43.24 42.85 43.13 44.74 44.96 47.10 48.96 46.39 46.64 40.02 39.89 40.91 41.18 40.93 41.23 41.16 42.11 40.17 41.20 36.47 38.81 38.69 42.46 44.08 44.26 44.91 45.47 46.13 45.30 45.24
47.60 46.64 47.10 46.68 46.28 46.97 45.25 46.77 46.45 45.11 46.54 45.05 46.01 45.15 45.32 44.45 45.21 42.97 44.65 44.43 43.92 45.69 45.06 43.68 39.86 40.83 38.81 41.67 41.41 39.62 42.20 42.12 41.75 41.33 40.34 40.58 39.51 45.15 45.66 46.33 44.93 45.18 45.09 44.08 44.48
45.48 46.38 48.43 43.78 45.55 45.77 46.75 46.41 46.12 47.04 46.33 47.39 47.28 45.57 44.21 45.26 47.25 47.70 48.36 47.18 46.91 45.68 43.89 42.94 41.34 39.58 36.86 39.93 40.08 36.92 40.24 40.59 40.81 41.92 41.42 36.68 41.28 44.77 43.77 43.42 44.32 44.75 45.05 43.86 44.52
MSLP
1017.00 1016.80 1016.65 1016.46 1016.28 1016.10 1015.90 1015.68 1015.47 1015.24 1014.99 1014.64 1014.26 1013.90 1013.53 1013.19 1013.04 1012.93 1012.01 1011.60 1011.41 1011.43 1011.44 1011.02 1010.83 1010.79 1010.64 1010.81 1011.16 1011.24 1010.81 1010.95 1011.04 1010.87 1010.70 1011.17 1011.22 1011.55 1011.58 1011.53 1011.92 1012.26 1012.32 1012.40 1013.04
1016.98 1016.79 1016.62 1016.44 1016.21 1015.98 1015.78 1015.58 1015.35 1015.02 1014.67 1014.35 1014.04 1013.68 1013.22 1012.91 1012.44 1012.00 1011.62 1011.41 1011.32 1011.34 1011.15 1010.86 1010.73 1010.59 1010.65 1010.96 1011.03 1010.80 1010.85 1011.22 1011.40 1011.19 1010.95 1011.10 1011.30 1011.51 1011.58 1011.77 1011.98 1012.22 1012.65 1012.74 1013.13
1016.94 1016.77 1016.57 1016.35 1016.13 1015.93 1015.70 1015.44 1015.13 1014.84 1014.52 1014.18 1013.77 1013.36 1012.89 1012.63 1012.04 1011.97 1011.66 1011.44 1011.26 1011.22 1011.10 1011.00 1010.80 1010.53 1010.81 1011.17 1011.42 1011.29 1011.22 1011.62 1011.60 1011.42 1011.32 1011.28 1011.50 1011.84 1011.76 1011.88 1011.91 1011.89 1012.39 1012.78 1013.09
1016.85 1016.67 1016.49 1016.31 1016.09 1015.82 1015.54 1015.22 1014.95 1014.70 1014.40 1013.94 1013.38 1013.01 1012.56 1012.41 1012.30 1011.73 1011.67 1011.39 1011.28 1011.08 1010.89 1010.72 1010.53 1010.60 1011.04 1011.28 1011.75 1011.44 1011.84 1011.75 1011.70 1011.78 1011.60 1011.47 1011.83 1012.10 1012.50 1012.74 1012.47 1012.42 1012.95 1013.07 1013.07
1016.73 1016.58 1016.45 1016.25 1016.00 1015.73 1015.46 1015.15 1014.85 1014.61 1014.31 1013.84 1013.27 1012.69 1012.26 1012.19 1012.04 1011.52 1011.67 1011.25 1011.20 1011.01 1010.86 1010.75 1010.70 1010.95 1011.15 1011.61 1011.70 1011.68 1012.05 1012.21 1012.23 1012.02 1012.02 1012.10 1012.63 1013.00 1013.78 1013.84 1013.29 1013.26 1013.61 1013.55 1013.34
1016.64 1016.49 1016.33 1016.14 1015.89 1015.62 1015.36 1015.07 1014.77 1014.48 1014.18 1013.78 1013.35 1012.83 1012.43 1012.12 1011.75 1011.66 1011.36 1011.13 1011.12 1010.95 1010.95 1010.82 1011.01 1011.20 1011.46 1011.87 1011.95 1012.65 1012.55 1012.66 1012.60 1012.45 1012.72 1012.91 1013.97 1013.82 1014.98 1015.03 1014.27 1014.39 1014.43 1014.52 1014.43
1016.55 1016.36 1016.20 1016.02 1015.81 1015.54 1015.21 1014.87 1014.54 1014.23 1013.95 1013.70 1013.43 1012.99 1012.38 1011.96 1011.62 1011.36 1011.07 1011.03 1011.13 1011.05 1010.94 1011.14 1011.24 1011.32 1011.80 1012.13 1012.85 1012.86 1012.64 1012.64 1012.99 1013.12 1013.51 1013.66 1014.99 1016.52 1016.85 1016.17 1015.54 1015.57 1015.32 1014.85 1014.46
1016.51 1016.30 1016.12 1015.91 1015.69 1015.36 1015.01 1014.68 1014.33 1014.05 1013.79 1013.56 1013.41 1012.99 1012.11 1011.48 1011.44 1011.16 1010.99 1010.84 1011.08 1011.02 1011.12 1011.35 1011.44 1011.65 1012.19 1012.72 1012.89 1012.88 1013.13 1012.87 1013.53 1013.52 1013.75 1014.15 1016.03 1017.76 1017.58 1016.92 1016.75 1016.75 1016.41 1015.85 1015.13
1016.46 1016.23 1016.03 1015.80 1015.51 1015.14 1014.79 1014.43 1014.04 1013.84 1013.66 1013.51 1013.38 1012.84 1011.92 1011.29 1011.38 1011.36 1011.18 1011.07 1011.14 1011.31 1011.53 1011.67 1011.72 1012.59 1012.95 1012.67 1012.91 1013.18 1013.21 1013.50 1013.86 1014.22 1014.15 1014.33 1016.41 1018.39 1018.71 1018.17 1017.88 1017.56 1017.05 1016.60 1016.07
1016.43 1016.20 1015.98 1015.72 1015.37 1014.98 1014.54 1014.19 1013.88 1013.69 1013.55 1013.39 1013.31 1013.02 1012.06 1011.99 1011.76 1011.41 1011.30 1011.36 1011.33 1011.46 1011.44 1011.97 1012.50 1012.71 1013.05 1012.74 1012.99 1013.34 1013.61 1014.16 1014.23 1014.92 1015.24 1016.06 1017.49 1018.47 1019.04 1018.87 1018.64 1018.38 1018.01 1017.48 1017.12
1016.31 1016.08 1015.87 1015.59 1015.26 1014.93 1014.03 1013.88 1014.19 1014.01 1013.50 1013.57 1013.38 1012.92 1012.50 1012.02 1011.88 1011.45 1011.44 1011.48 1011.78 1012.09 1012.53 1013.15 1012.98 1013.72 1014.17 1014.16 1014.06 1014.07 1014.19 1014.45 1015.00 1015.62 1015.94 1017.06 1017.96 1018.77 1019.12 1018.93 1018.93 1018.94 1018.66 1018.24 1018.02
1016.33 1016.00 1015.74 1015.49 1015.13 1014.89 1014.69 1014.39 1014.81 1014.95 1014.12 1013.57 1013.23 1012.89 1012.50 1012.26 1011.97 1011.75 1011.58 1012.07 1012.53 1012.92 1013.39 1013.67 1013.97 1014.82 1014.81 1014.72 1014.58 1014.60 1014.75 1015.11 1015.48 1015.90 1016.23 1017.53 1018.29 1019.12 1019.43 1019.62 1019.78 1019.67 1019.42 1019.17 1018.79
1016.30 1015.91 1015.60 1015.28 1014.94 1014.67 1014.80 1014.82 1014.68 1014.62 1014.24 1013.51 1013.05 1012.61 1012.30 1012.23 1012.22 1012.15 1012.09 1012.69 1013.22 1013.74 1013.97 1014.18 1015.47 1015.24 1015.00 1015.24 1015.21 1015.51 1015.48 1015.71 1015.93 1016.28 1016.89 1017.52 1018.27 1018.97 1019.69 1019.85 1019.95 1020.02 1020.00 1019.82 1019.63
1016.24 1015.83 1015.49 1015.08 1015.09 1015.13 1014.83 1014.76 1014.54 1014.49 1013.95 1013.53 1012.80 1012.32 1012.32 1012.20 1012.52 1012.58 1012.64 1012.91 1013.47 1014.21 1014.79 1015.28 1015.94 1015.64 1015.48 1015.85 1016.15 1016.05 1016.43 1016.45 1016.44 1016.65 1016.70 1017.72 1017.46 1019.00 1019.57 1019.80 1019.96 1020.13 1020.14 1020.07 1019.99
1016.20 1015.79 1015.47 1015.11 1015.02 1014.90 1014.78 1014.57 1014.51 1014.41 1013.80 1013.48 1012.59 1012.18 1012.34 1012.50 1012.85 1013.06 1013.23 1013.01 1013.86 1014.57 1015.04 1016.20 1016.20 1016.11 1016.07 1016.67 1016.79 1016.93 1017.09 1017.20 1017.18 1017.02 1017.38 1017.69 1018.00 1018.71 1019.56 1019.76 1020.13 1020.37 1020.48 1020.55 1020.58
1016.08 1015.69 1015.51 1015.20 1015.01 1014.57 1014.55 1014.41 1014.30 1014.32 1013.84 1013.31 1012.77 1012.52 1012.69 1013.06 1013.30 1013.50 1013.57 1013.83 1014.73 1015.07 1015.50 1016.27 1016.75 1016.85 1016.93 1017.29 1017.51 1017.56 1017.55 1017.82 1017.96 1017.75 1017.43 1017.97 1018.40 1018.44 1019.16 1019.82 1020.31 1020.64 1020.80 1020.92 1020.88
1015.88 1015.47 1015.46 1015.07 1015.02 1014.67 1014.51 1014.33 1014.43 1014.03 1014.26 1013.88 1013.47 1013.33 1013.46 1013.96 1014.15 1014.33 1014.72 1015.20 1015.57 1015.76 1016.13 1016.85 1017.23 1017.42 1017.60 1017.39 1017.77 1017.80 1017.96 1017.93 1018.02 1017.97 1017.91 1018.67 1018.83 1018.78 1019.80 1020.35 1020.66 1020.94 1021.24 1021.35 1021.30
1015.62 1015.31 1015.36 1015.07 1014.96 1014.72 1014.46 1014.60 1014.48 1014.62 1014.30 1014.19 1014.11 1014.11 1014.36 1014.93 1015.19 1015.43 1015.77 1016.18 1016.50 1016.58 1016.97 1017.21 1017.84 1018.17 1018.36 1018.51 1018.67 1019.03 1019.22 1019.28 1019.19 1019.13 1018.86 1019.08 1018.76 1019.32 1020.39 1020.96 1021.25 1021.46 1021.59 1021.60 1021.42
1015.41 1015.18 1015.10 1014.97 1014.74 1014.64 1014.64 1014.72 1014.80 1014.75 1014.64 1014.49 1014.61 1014.75 1015.25 1015.54 1015.72 1016.06 1016.58 1017.00 1017.43 1017.46 1017.58 1018.03 1018.68 1019.17 1019.29 1019.32 1019.48 1019.62 1020.22 1021.04 1020.68 1020.97 1020.28 1019.18 1019.75 1020.15 1020.65 1020.97 1021.29 1021.55 1021.68 1021.53 1021.50
1015.68 1015.35 1015.26 1015.02 1014.84 1014.72 1014.89 1015.28 1015.29 1015.18 1014.94 1014.89 1015.15 1015.72 1015.82 1016.16 1016.32 1016.62 1017.02 1017.70 1018.00 1018.31 1018.24 1018.95 1019.26 1019.72 1019.84 1019.89 1020.18 1020.04 1021.14 1021.33 1021.41 1021.14 1020.18 1019.41 1019.55 1019.18 1020.40 1020.85 1021.45 1021.63 1021.65 1021.68 1021.50
1016.08 1015.62 1015.15 1015.01 1014.79 1015.04 1015.28 1015.52 1015.45 1015.42 1015.25 1015.45 1015.80 1016.27 1016.71 1016.91 1017.08 1017.34 1017.82 1018.28 1018.33 1018.79 1018.96 1019.57 1020.01 1020.35 1020.40 1020.29 1020.45 1020.93 1021.16 1021.87 1022.30 1022.19 1021.57 1020.27 1019.29 1019.93 1020.38 1021.06 1021.38 1021.58 1021.73 1021.54 1021.11
1016.77 1016.08 1015.41 1015.10 1015.47 1016.30 1015.85 1015.77 1015.70 1015.66 1015.63 1015.94 1016.34 1016.82 1017.20 1017.58 1017.78 1018.00 1018.28 1018.71 1019.01 1019.12 1019.69 1020.61 1020.76 1020.62 1020.90 1021.07 1021.35 1021.43 1021.50 1021.92 1022.25 1022.40 1022.26 1021.94 1020.13 1020.39 1020.68 1021.31 1021.78 1021.83 1021.70 1021.42 1021.08
1017.89 1017.17 1015.76 1015.45 1016.09 1016.47 1016.34 1016.00 1015.86 1015.81 1016.15 1016.37 1016.88 1017.28 1017.75 1018.14 1018.55 1018.61 1018.90 1019.54 1019.55 1019.66 1020.11 1020.65 1021.21 1021.18 1021.12 1021.45 1021.41 1021.37 1021.61 1022.04 1022.61 1022.94 1022.30 1021.88 1020.47 1020.94 1021.31 1021.56 1021.78 1021.71 1021.51 1021.12 1020.72
1018.61 1018.06 1017.14 1016.93 1017.67 1016.89 1016.63 1016.43 1016.35 1016.38 1016.63 1016.90 1017.33 1017.62 1018.06 1018.54 1018.81 1018.96 1019.23 1019.77 1019.95 1020.32 1020.82 1020.86 1021.38 1021.13 1020.91 1020.82 1021.14 1021.41 1021.53 1021.90 1022.29 1022.29 1021.51 1021.26 1020.38 1020.57 1020.88 1021.16 1021.35 1021.26 1021.02 1020.46 1019.93
1019.67 1019.96 1019.96 1018.56 1018.20 1017.64 1017.20 1016.86 1016.61 1016.70 1016.92 1017.24 1017.68 1017.75 1018.09 1018.63 1018.92 1019.13 1019.54 1019.96 1020.37 1020.74 1021.17 1021.22 1021.32 1021.59 1021.25 1021.24 1021.44 1021.29 1021.29 1021.47 1021.79 1021.63 1021.75 1020.95 1020.98 1020.80 1021.03 1021.30 1021.33 1021.32 1020.70 1020.02 1019.35
1020.93 1020.86 1020.41 1019.66 1019.11 1018.30 1017.86 1017.26 1016.90 1017.04 1017.16 1017.40 1017.63 1018.17 1018.47 1018.67 1018.91 1019.19 1019.61 1020.13 1020.29 1021.03 1021.31 1021.84 1021.75 1021.86 1021.39 1021.32 1021.46 1021.33 1021.14 1021.43 1021.53 1021.64 1021.74 1021.47 1020.98 1021.15 1021.45 1021.25 1020.93 1020.74 1020.17 1019.63 1019.07
1022.06 1021.82 1020.86 1020.17 1019.35 1018.77 1018.11 1017.62 1017.22 1017.31 1017.56 1017.56 1017.81 1018.38 1018.84 1019.08 1019.33 1019.53 1019.89 1020.31 1020.51 1020.91 1021.46 1021.79 1021.90 1022.07 1021.44 1021.74 1021.68 1021.31 1021.05 1021.44 1021.72 1021.94 1021.95 1021.63 1021.17 1021.41 1021.24 1020.99 1020.79 1020.38 1019.95 1019.37 1018.92
Wind_Speed
6 6 6 6 6 6 7 8 9 9 9 10 11 11 11 10 3 2 4 1 2 4 1 3 3 3 2 4 3 1 3 6 4 9 5 1 5 3 3 5 1 2 2 4 8
6 6 6 6 6 7 8 8 9 10 11 11 11 11 10 7 1 6 5 2 5 3 2 3 3 2 5 3 4 3 4 3 2 1 2 1 3 2 4 3 2 3 1 1 10
6 6 6 6 6 7 8 9 9 10 11 12 11 10 10 3 4 4 7 6 1 1 2 2 4 3 5 2 5 2 5 3 2 1 1 2 3 1 7 4 5 8 7 5 8
6 6 7 7 7 8 9 9 10 11 11 12 12 10 9 1 5 2 8 5 3 4 2 7 5 4 5 5 3 6 2 2 1 2 2 3 3 5 6 10 11 6 3 7 12
6 7 7 7 8 8 9 10 11 11 11 12 13 14 2 5 3 3 7 2 2 1 6 4 9 3 6 4 3 6 3 5 3 4 3 4 10 6 16 21 9 2 3 7 11
6 6 7 7 8 9 10 11 11 11 10 10 11 12 3 6 1 6 8 2 4 3 4 4 3 3 6 3 4 5 10 7 6 5 6 9 13 5 15 22 6 7 7 7 9
7 7 7 8 9 10 10 11 10 10 10 9 9 3 3 2 3 8 4 3 2 1 2 1 4 1 3 5 3 6 10 12 13 7 5 4 10 13 16 11 13 12 11 13 13
7 7 7 8 9 10 11 11 11 10 9 6 6 1 1 2 5 3 4 2 5 4 3 3 3 7 4 3 4 4 2 3 9 9 5 6 6 12 16 14 14 12 12 12 14
8 8 8 8 9 11 12 12 11 7 5 5 1 2 2 8 4 4 2 5 3 3 8 6 5 5 3 5 5 4 6 6 2 9 3 6 4 11 11 10 13 13 14 13 13
10 9 8 8 9 11 13 6 2 1 1 1 1 1 4 3 4 4 2 5 6 1 4 8 5 8 7 1 4 3 5 4 3 7 10 11 7 8 11 11 13 12 12 14 15
12 10 9 9 9 10 6 1 1 1 4 2 0 0 2 5 2 4 3 2 5 8 5 6 9 8 7 3 3 5 5 4 2 3 3 8 8 9 10 14 15 13 12 12 13
13 11 10 10 11 8 2 5 2 2 3 2 3 4 3 2 3 5 3 5 8 8 1 4 10 7 4 7 7 4 4 3 1 3 1 4 8 8 11 11 11 11 11 11 11
14 12 11 10 10 2 3 4 2 3 1 3 2 2 1 3 2 3 3 2 7 12 13 11 5 4 9 10 7 5 3 1 2 2 5 8 5 5 5 6 8 11 10 11 11
15 12 11 12 1 1 2 5 2 5 2 3 1 1 2 3 3 2 3 2 3 6 5 7 4 9 11 7 3 2 2 3 5 4 6 2 4 5 4 5 7 8 9 10 11
15 12 10 8 2 1 3 5 5 2 3 1 2 1 2 2 3 4 4 4 4 3 3 4 7 7 10 3 3 3 3 2 3 6 3 3 5 7 6 3 3 5 7 9 10
16 10 6 1 0 2 6 1 1 1 3 2 2 1 3 3 2 1 4 7 2 4 8 5 2 4 3 2 4 3 1 3 2 2 5 4 4 7 5 2 2 2 6 8 9
16 7 2 1 2 5 3 2 2 2 2 3 2 3 5 5 3 4 4 5 2 1 2 3 3 1 3 1 3 7 4 2 2 3 3 3 7 4 3 2 2 1 4 5 7
17 2 1 1 6 4 1 2 3 1 1 1 2 6 4 4 3 3 3 3 6 2 3 0 4 6 6 4 3 5 4 2 5 3 7 5 5 4 4 4 3 3 2 3 6
10 1 2 5 3 1 3 2 2 2 1 1 3 2 2 1 2 2 3 2 3 3 1 1 3 2 8 4 3 3 3 2 0 1 4 1 1 6 6 3 4 4 4 8 11
2 1 2 8 3 3 3 2 1 1 0 1 2 2 1 3 1 1 1 2 3 3 2 3 2 1 2 1 9 4 5 1 2 4 6 3 4 7 8 4 2 4 6 9 12
2 2 1 6 1 4 2 2 2 3 1 3 2 3 2 1 2 1 2 3 2 4 5 2 0 3 3 2 2 3 3 4 1 2 4 7 2 2 3 3 5 10 9 14 16
2 1 4 2 3 1 2 2 1 2 5 4 4 3 1 1 2 2 2 2 4 2 3 2 2 0 1 3 3 1 2 3 1 2 5 6 8 1 4 3 5 8 12 16 16
2 3 2 2 2 1 1 2 2 2 3 2 3 2 1 2 1 1 2 2 3 2 4 5 1 0 2 4 3 4 3 3 2 0 8 7 6 3 3 5 8 11 14 16 17
1 1 3 5 2 2 2 2 3 3 3 4 3 2 3 2 2 3 3 2 2 3 7 4 3 4 4 4 1 4 6 8 6 4 11 13 21 16 12 14 13 15 18 19 20
4 2 2 2 3 2 1 1 4 4 2 1 2 2 4 3 2 3 3 3 2 4 3 1 4 4 7 8 6 8 10 9 11 14 9 16 15 16 15 12 14 15 18 22 23
2 1 1 1 3 1 1 3 5 3 4 2 4 5 3 3 3 5 5 3 3 3 2 1 2 1 4 4 6 10 11 11 13 11 10 11 16 8 12 13 17 18 21 23 24
1 0 2 2 1 2 1 1 4 6 2 0 6 5 3 1 2 1 2 4 2 4 5 3 4 3 3 3 7 11 6 5 2 4 6 10 16 14 12 18 17 18 21 22 24
Wind_Direction
343 346 343 335 328 327 326 321 315 310 306 305 307 304 302 308 301 188 49 347 255 164 269 327 64 49 76 78 56 162 95 117 132 175 154 118 135 168 46 146 13 340 287 344 126
344 341 339 331 329 327 322 314 310 313 314 313 307 304 307 323 129 61 343 278 259 248 320 49 71 76 70 45 33 37 97 114 143 149 181 74 64 121 175 147 253 253 154 47 147
339 340 338 336 332 325 317 313 316 317 314 310 309 314 317 298 66 27 337 337 318 156 86 87 103 65 72 31 13 53 87 147 113 132 125 66 94 98 142 198 207 198 171 172 165
339 339 339 337 332 325 319 316 316 315 315 318 319 326 316 217 78 318 334 341 152 110 92 43 49 66 71 76 2 104 84 40 99 146 204 139 97 93 25 335 307 231 115 179 190
342 340 337 334 328 322 317 314 313 313 319 324 327 334 26 59 60 306 336 360 148 343 40 54 52 83 81 92 100 80 48 43 356 11 46 66 48 58 30 349 341 116 183 204 208
344 337 331 326 317 313 313 310 306 306 315 326 331 319 75 85 295 313 329 99 45 30 38 41 77 106 92 80 59 77 82 55 13 343 47 78 39 32 358 335 7 9 330 293 267
351 339 328 317 313 311 307 301 297 304 318 324 333 1 69 83 335 321 341 326 353 351 86 100 125 126 139 120 90 135 94 59 27 348 77 141 50 11 344 359 34 13 349 329 271
358 344 326 315 312 307 302 300 300 307 308 310 326 339 82 255 311 342 345 342 28 63 85 101 99 91 33 116 64 107 82 101 18 359 57 208 103 30 358 9 31 18 0 341 332
359 348 335 324 315 310 307 305 296 294 287 288 348 17 37 324 37 331 345 349 31 52 55 74 67 64 89 124 119 40 109 104 107 26 329 23 85 24 27 35 41 24 11 8 357
359 350 341 331 320 318 311 280 316 295 69 241 108 147 16 350 302 329 25 50 37 47 62 36 60 59 45 80 96 97 116 90 96 20 76 79 74 33 38 62 55 37 27 21 21
360 350 342 330 323 327 340 259 6 34 41 72 67 43 301 295 291 6 13 48 28 58 76 27 62 40 360 24 92 111 108 114 153 59 98 92 89 45 33 45 47 47 29 23 25
356 348 339 326 316 315 270 69 80 57 327 44 280 288 253 276 21 1 19 65 42 51 128 87 41 356 79 94 78 95 108 58 246 29 157 160 96 63 46 46 43 41 40 29 25
350 346 338 329 317 339 41 72 334 208 55 320 244 246 286 167 84 4 27 98 79 69 65 84 47 63 76 65 80 60 89 162 284 10 86 150 156 125 70 58 55 51 53 48 36
346 344 338 322 92 329 52 341 316 193 82 2 119 135 140 144 67 1 36 83 67 111 99 71 28 62 68 66 333 230 344 290 279 249 282 241 289 169 123 82 54 40 39 36 30
341 340 338 5 113 74 351 342 129 224 111 73 89 39 54 123 130 52 17 37 85 85 220 92 60 58 57 45 312 52 342 329 304 244 273 156 249 131 193 145 72 33 34 33 30
337 334 323 148 123 354 334 133 170 215 115 93 22 85 123 28 60 71 51 48 89 81 63 103 85 31 356 95 43 309 204 83 90 196 237 123 321 171 186 174 153 40 27 18 14
337 327 163 335 16 339 322 51 138 84 304 21 38 21 86 24 54 28 32 39 358 169 139 112 57 8 8 46 50 20 347 330 204 222 314 138 277 16 145 82 27 42 39 28 23
337 141 196 352 308 306 54 84 86 159 51 66 61 78 81 7 51 43 83 114 53 63 110 230 191 4 356 26 350 39 359 309 294 284 313 278 255 109 107 81 73 89 42 19 357
319 46 76 351 339 339 84 76 137 180 190 98 98 82 97 66 107 96 60 86 32 6 128 179 129 78 60 39 338 90 73 15 254 228 259 239 170 197 175 91 53 23 335 344 345
43 57 23 330 337 63 82 123 108 266 31 80 101 351 110 15 154 89 127 45 107 40 344 123 187 54 86 263 58 60 118 192 42 305 293 228 266 289 201 231 265 296 318 328 323
42 88 18 345 54 55 107 153 145 41 133 42 110 102 87 63 47 83 69 66 41 58 71 102 69 128 221 46 116 146 127 77 351 263 280 305 298 137 264 191 338 333 323 322 324
31 117 10 317 55 20 128 158 315 76 48 78 87 94 119 89 71 107 128 41 348 115 79 59 118 94 33 322 294 258 146 119 168 203 246 285 289 28 168 148 330 308 319 322 318
39 301 6 295 145 112 196 111 85 107 48 95 106 64 57 108 133 128 110 66 14 108 159 170 64 18 170 161 175 240 189 142 110 214 243 275 271 175 190 272 314 318 322 317 316
1 341 354 54 23 108 140 132 115 44 84 75 113 129 120 120 37 151 142 52 28 85 80 111 144 221 251 301 114 221 222 209 240 249 285 265 289 299 311 327 326 328 325 320 321
11 70 32 9 60 36 352 147 153 162 85 81 103 158 156 155 153 180 169 150 81 139 76 155 237 205 253 253 230 258 260 263 249 273 269 294 296 305 322 317 320 319 315 322 321
32 356 92 74 304 286 347 205 202 149 163 173 156 148 148 171 211 195 179 210 197 136 119 36 199 218 267 276 242 260 267 273 277 279 263 282 295 349 315 307 321 322 318 321 319
42 125 278 71 54 221 223 209 215 153 68 82 152 136 188 203 155 98 119 94 130 173 151 174 160 188 260 353 316 274 274 209 265 243 284 287 315 320 310 316 322 314 315 317 318